Location: Newark
(45.4422°N, 16.2769°E)
Time: 20:45:44
(UTC+00:00)

Tiros 1 despin weight - Pass Details

Date: 15 December 2019
Orbit: 593 x 643 km, 48.2° (Epoch: 18 January)

Event Time Altitude Azimuth Distance (km) Brightness Sun altitude
Rises 02:49:40 0° 241° (WSW) 2,898 - -37.1°
Reaches altitude 10° 02:51:59 10° 240° (WSW) 1,986 - -36.7°
Maximum altitude 02:56:32 73° 157° (SSE) 645 - -35.9°
Exits shadow 02:59:47 18° 74° (ENE) 1,490 ? -35.4°
Drops below altitude 10° 03:01:02 10° 72° (ENE) 1,960 ? -35.1°
Sets 03:03:19 0° 71° (ENE) 2,858 ? -34.7°
